Location: Nitra
(0.0000°N, 18.0833°E)
Time: 19:16:22
(UTC+02:00)

A-11 Canister half - Pass Details

Date: 06 April 2023
Orbit: 1526 x 1682 km, 47.3° (Epoch: 08 June)

Event Time Altitude Azimuth Distance (km) Brightness Sun altitude
Rises 09:56:42 0° 211° (SSW) 4,810 11.3 46.2°
Reaches altitude 10° 09:59:51 10° 206° (SSW) 3,844 11.0 47.0°
Maximum altitude 10:09:29 58° 129° (SE) 1,879 10.8 49.4°
Drops below altitude 10° 10:19:19 10° 53° (NE) 3,929 11.9 51.8°
Sets 10:22:34 0° 49° (NE) 4,921 12.1 52.6°
